EHI
14 16 19 23 26 25 26 27 25 25 27 26 22 20 18 17 16 11 8 8 8 8 7 6 5 6 6 4 2 2 2 1 0 0 0 0 0 0 0 0 0 0 0
18 19 22 26 29 28 28 29 28 28 29 27 23 20 19 18 16 13 11 10 10 9 9 8 6 6 6 3 1 1 1 0 0 0 0 0 0 0 1 1 0 0 0
22 22 25 30 32 30 30 30 29 29 29 28 25 22 20 19 17 15 14 12 11 10 10 9 6 5 5 4 2 1 1 1 0 0 0 0 0 1 2 1 0 0 0
23 24 28 32 33 32 31 31 29 27 27 27 26 24 22 19 17 16 14 12 11 10 9 7 5 3 4 5 4 2 2 2 1 0 0 0 0 1 2 2 0 0 0
23 26 32 35 34 33 34 33 30 27 26 25 25 25 23 20 16 14 13 11 10 9 8 6 4 3 3 4 3 3 3 3 1 0 0 0 0 1 2 1 0 0 0
24 28 33 36 35 34 34 34 31 28 25 23 23 23 23 20 17 14 11 10 10 9 8 6 4 3 3 3 3 3 3 3 2 1 1 0 0 0 1 1 0 0 0
24 27 31 35 36 35 33 31 30 28 24 22 21 20 20 18 16 13 11 10 10 9 8 6 4 3 3 3 3 3 3 2 1 0 0 0 0 0 0 0 0 0 0
23 25 27 30 32 33 31 28 27 26 23 22 21 19 17 15 13 12 11 10 9 9 9 6 3 2 2 2 2 2 2 1 0 0 0 0 0 0 0 0 0 0 0
19 21 21 23 26 27 27 25 24 22 20 19 18 17 13 11 10 10 10 9 7 7 7 5 2 1 1 1 1 1 1 0 0 0 0 0 0 0 0 0 0 0 0
14 14 16 17 20 21 21 21 20 18 16 15 14 12 10 8 7 8 8 8 6 5 4 2 1 0 0 0 0 0 0 0 0 0 0 0 0 0 0 0 0 0 0
8 9 12 14 15 15 15 16 16 14 12 11 10 9 8 7 6 6 7 7 6 5 4 2 1 0 0 0 0 0 0 0 0 0 0 0 0 0 0 0 0 0 0
5 7 9 11 11 10 11 13 14 13 11 9 8 8 7 6 6 7 8 8 7 5 4 3 2 1 0 0 0 0 0 0 0 0 0 0 0 0 0 0 0 0 0
5 7 9 10 9 9 9 10 12 12 10 7 6 6 6 6 6 7 7 7 6 4 3 3 2 1 0 0 0 0 0 0 0 0 0 0 0 0 0 0 0 0 0
8 9 10 9 8 7 7 8 9 10 8 6 4 4 4 4 4 4 5 4 4 3 3 2 1 0 0 0 0 0 0 0 0 0 0 0 0 0 0 0 0 0 0
9 10 10 9 8 6 6 7 6 6 5 4 3 3 3 3 3 3 3 3 3 3 2 1 0 0 0 0 0 0 0 0 0 0 0 0 0 0 0 0 0 0 0
7 8 10 10 8 6 6 6 5 4 3 3 3 3 3 3 3 3 3 3 2 1 1 0 0 0 0 0 0 0 0 0 0 0 0 0 0 0 0 0 0 0 0
5 6 8 8 6 6 6 6 5 4 3 3 3 3 3 3 3 3 3 2 1 0 0 0 0 0 0 0 0 0 0 0 0 0 0 0 0 0 0 0 0 0 0
4 4 5 5 4 4 4 3 3 3 2 1 2 3 3 2 2 2 2 1 0 0 0 0 0 0 0 0 0 0 0 0 0 0 0 0 0 0 0 0 0 0 0
3 3 3 3 2 2 2 1 1 1 1 1 1 2 1 1 1 1 1 0 0 0 0 0 0 0 0 0 0 0 0 0 0 0 0 0 0 0 0 0 0 0 0
2 2 1 1 1 1 1 0 0 0 0 1 1 1 1 0 0 0 0 0 0 0 0 0 0 0 0 0 0 0 0 0 0 0 0 0 0 0 0 0 0 0 0
1 2 1 0 0 0 0 0 0 0 1 2 2 2 2 1 0 0 0 0 0 0 0 0 0 0 0 0 0 0 0 0 0 0 0 0 0 0 0 0 0 0 0
1 2 2 1 0 0 0 0 1 1 1 3 3 3 2 1 0 0 0 0 0 0 0 0 0 0 0 0 0 0 0 0 0 0 0 0 0 0 0 0 0 0 0
1 2 1 1 1 0 0 0 0 1 2 3 3 3 2 0 0 0 0 0 0 0 0 0 0 0 0 0 0 0 0 0 0 0 0 0 0 0 0 0 0 0 0
0 1 1 0 0 0 0 0 0 1 2 3 3 3 2 1 0 0 0 0 0 0 0 0 1 1 0 0 0 0 0 0 0 0 0 0 0 0 0 0 0 0 0
0 0 0 0 0 0 0 0 0 1 2 3 3 3 3 1 1 1 1 0 0 0 0 0 1 1 0 0 0 0 0 0 0 0 0 0 0 0 0 0 0 0 0
0 0 0 0 0 0 0 0 0 1 2 3 3 3 3 2 2 2 2 1 0 0 0 0 1 1 0 0 0 0 0 0 0 0 0 0 0 0 0 0 0 0 0
Wind_Speed
8 9 10 10 9 9 9 8 8 7 6 4 3 3 3 2 2 2 3 4 4 3 3 3 3 3 3 3 3 2 2 1 1 1 1 2 2 2 3 2 2 3 4
6 7 8 9 9 9 9 8 8 8 7 5 4 3 3 2 2 2 2 3 3 3 3 4 3 3 2 2 2 2 2 1 2 2 1 1 3 3 2 2 3 4 3
11 10 10 10 10 10 11 9 8 8 7 5 3 2 2 1 1 1 2 3 3 4 3 4 4 3 3 3 3 3 4 2 1 2 3 3 3 2 2 2 2 3 3
9 9 10 11 11 11 9 8 7 7 6 6 5 5 4 3 3 3 2 3 3 3 3 4 4 4 4 4 4 4 3 4 2 1 1 2 3 2 1 3 2 2 3
9 9 10 10 9 9 8 7 7 6 5 6 7 6 4 3 2 2 3 3 3 3 3 3 4 4 4 4 4 3 3 3 3 2 2 1 1 2 2 2 2 2 2
7 8 8 8 7 7 7 7 7 5 5 6 6 6 5 4 4 3 3 3 2 2 3 3 4 4 4 4 4 4 4 4 4 3 3 3 2 3 3 3 2 2 3
7 7 7 7 8 8 8 7 7 6 6 5 5 5 6 6 6 5 4 4 2 2 3 3 4 4 4 4 4 4 4 4 4 4 3 3 3 3 3 3 2 2 2
5 6 7 8 8 9 9 8 8 7 6 6 5 4 5 4 4 4 4 4 4 4 4 4 4 4 4 4 4 3 4 4 5 6 4 3 4 3 3 3 3 1 2
5 6 6 7 7 8 8 9 8 6 6 6 5 4 4 4 4 3 3 3 3 3 4 4 4 4 4 4 4 4 4 4 5 5 5 4 4 3 3 3 4 4 2
6 6 6 6 6 5 5 6 7 6 5 5 4 4 3 4 3 3 3 3 3 2 3 3 3 4 4 4 4 4 4 5 5 4 5 4 3 3 3 3 3 3 4
7 7 6 5 5 5 4 5 4 4 4 4 4 3 3 3 3 3 3 3 3 3 3 3 3 3 4 4 4 5 5 5 5 5 5 6 5 4 3 3 3 3 3
7 7 7 6 5 5 5 5 5 4 4 4 3 3 3 2 3 3 3 3 3 3 3 2 3 3 3 3 4 5 5 5 6 6 5 6 5 5 4 3 4 4 4
5 6 6 6 6 6 5 5 5 4 4 3 3 2 2 3 3 3 2 2 2 2 2 2 3 3 3 3 4 4 4 5 5 5 6 6 5 5 4 4 4 3 4
6 6 6 6 6 6 6 6 5 5 4 4 3 3 3 3 3 2 2 3 3 2 2 2 2 3 3 3 3 3 3 4 4 4 5 5 6 6 6 5 5 4 3
5 5 6 6 5 5 5 5 4 4 4 4 3 3 2 2 2 2 2 2 2 2 2 2 2 2 2 3 3 4 4 4 4 3 3 4 6 7 6 5 5 4 3
5 5 6 6 6 5 5 4 4 4 4 5 4 3 2 2 2 2 2 2 2 2 2 2 2 2 3 3 5 4 3 3 4 4 4 5 5 6 7 7 7 7 6
5 5 6 7 7 6 6 5 5 4 4 4 3 3 3 3 3 3 2 3 3 2 2 3 2 3 4 5 5 5 4 3 3 4 4 4 4 4 4 5 5 7 9
5 4 5 4 4 4 4 4 4 4 4 3 3 3 4 3 3 2 2 3 2 2 3 3 3 3 4 5 5 5 3 3 3 4 5 4 4 4 4 3 3 4 5
3 3 4 4 4 4 4 4 3 3 3 3 3 3 4 3 3 3 3 3 2 2 2 3 3 3 4 5 5 4 2 2 3 3 3 4 4 6 6 4 4 4 5
2 3 3 3 4 3 4 5 4 3 3 4 4 4 4 4 4 4 3 2 2 2 3 3 3 4 4 4 4 4 2 2 3 3 3 5 5 6 6 4 5 5 5
2 3 3 3 3 2 3 3 3 4 4 4 3 3 3 3 3 3 2 2 2 2 2 3 3 3 4 4 4 4 3 3 3 3 3 4 7 7 8 7 6 8 6
2 3 3 2 1 2 2 2 3 4 3 2 2 2 3 2 2 2 2 1 1 2 2 2 3 3 3 3 4 5 5 5 3 4 4 4 8 9 9 7 7 9 6
2 2 3 2 1 2 2 2 3 3 2 2 2 2 2 1 1 2 2 1 1 2 2 2 2 3 2 3 4 5 6 6 4 4 6 7 9 8 6 8 8 6 4
2 2 2 2 1 2 2 3 2 2 2 2 2 2 1 2 2 1 1 2 2 2 2 2 3 3 3 3 2 3 3 4 4 4 5 7 7 5 5 5 4 4 4
1 2 2 2 1 1 1 1 1 2 2 2 2 2 2 2 2 2 2 3 3 4 4 3 3 3 4 6 6 4 4 4 4 2 1 1 2 2 2 2 3 3 3
2 2 2 1 1 1 1 2 1 1 2 1 1 1 1 2 2 2 2 3 4 6 6 6 5 5 8 8 8 7 6 6 4 2 2 3 3 3 4 3 3 3 3
Wind_Direction
195 178 174 171 166 163 162 170 163 165 158 155 158 160 178 183 183 194 186 178 182 180 170 171 173 169 168 182 179 170 171 195 160 98 335 318 292 254 233 220 209 220 214
183 177 175 172 173 171 169 173 170 169 171 173 173 173 173 184 188 190 184 182 182 185 186 179 175 173 169 176 174 163 161 203 162 143 123 341 328 302 252 217 203 217 210
182 178 181 181 176 176 176 179 178 174 174 164 140 120 96 79 101 193 195 204 191 187 187 181 174 175 177 189 190 177 169 189 205 166 155 163 216 274 294 249 217 213 209
180 177 179 179 182 184 179 174 173 172 171 160 158 162 173 188 202 196 199 215 205 198 192 186 181 181 184 188 196 182 175 169 189 216 203 183 170 170 273 301 270 235 224
179 177 180 179 180 175 169 168 166 168 168 169 172 175 183 195 190 181 192 210 220 214 202 193 186 190 191 191 192 184 183 177 181 190 192 207 203 174 174 248 278 280 241
176 177 172 163 165 165 162 158 158 168 171 173 176 179 181 184 182 193 199 209 217 223 219 203 195 194 194 195 195 193 189 190 190 196 192 185 187 201 188 213 241 257 259
167 167 161 160 164 165 168 164 164 172 175 175 181 185 185 187 193 200 201 204 208 221 227 216 208 201 202 202 196 195 198 195 198 207 211 204 205 189 180 187 217 244 269
157 165 168 164 166 168 168 168 171 175 174 176 184 184 182 188 201 205 199 203 205 214 215 213 214 210 208 208 199 200 205 198 206 214 212 211 217 200 188 182 175 216 273
165 167 169 165 164 166 171 171 170 172 178 182 182 186 187 190 197 200 199 203 207 212 209 206 209 216 214 211 203 209 213 204 211 217 218 219 220 208 204 189 174 174 215
163 164 163 162 159 161 164 162 162 171 179 179 186 184 188 193 191 188 200 204 205 200 198 207 209 219 222 220 213 215 215 210 217 215 218 224 221 214 208 199 193 186 191
168 163 155 155 149 142 145 153 160 161 171 177 178 176 191 198 189 192 204 202 197 195 203 208 212 222 227 223 214 220 217 217 225 224 218 228 221 212 209 200 200 202 190
168 160 153 145 141 149 152 158 164 170 177 174 169 176 183 187 187 198 205 198 200 207 209 205 216 227 230 225 216 226 227 221 224 226 223 231 223 216 211 203 211 216 205
155 151 146 145 155 163 159 158 161 168 166 159 166 171 179 191 197 202 202 199 207 218 222 213 223 233 235 232 231 227 227 225 227 225 223 230 220 219 215 208 212 219 219
152 146 151 157 161 159 160 160 165 167 165 164 165 179 196 206 206 201 198 204 206 210 226 234 230 235 239 238 232 221 226 228 230 228 227 227 217 215 213 214 214 211 213
144 149 159 160 158 157 159 160 169 172 167 166 176 200 205 193 186 189 200 207 212 220 216 222 250 258 249 237 223 218 223 222 231 235 231 233 223 219 212 213 208 201 202
151 156 156 155 160 165 169 163 170 176 165 171 187 194 186 183 190 202 204 211 223 228 220 231 231 250 255 251 238 226 220 219 221 230 238 245 234 225 220 219 209 199 203
156 160 161 168 171 173 174 175 173 163 164 176 186 187 189 194 210 216 213 222 227 224 231 245 239 248 264 268 258 234 209 212 221 226 231 242 234 225 221 229 228 227 227
163 165 162 164 165 167 172 170 154 152 165 179 189 194 192 202 216 218 227 235 231 229 234 240 244 246 261 264 260 245 213 220 231 227 220 221 236 232 212 213 226 240 244
162 164 155 156 160 157 162 148 144 155 170 186 199 201 198 200 207 221 232 232 224 238 241 239 240 244 263 259 247 231 217 230 247 243 225 214 223 231 213 199 219 247 261
141 141 130 126 142 159 150 144 162 170 190 204 209 208 205 204 215 225 232 231 221 237 251 257 244 237 249 252 238 214 197 225 251 258 250 235 228 232 219 205 214 237 249
132 134 128 136 159 165 148 153 176 205 213 207 206 210 218 220 219 218 223 232 232 247 263 270 271 256 248 252 239 216 203 219 236 243 249 247 239 239 235 223 218 229 234
115 128 130 143 167 165 147 169 211 222 214 196 202 217 225 227 218 205 232 235 224 247 264 273 288 279 265 253 249 237 230 231 226 239 243 248 248 246 242 234 236 241 239
154 152 152 163 221 215 177 190 234 216 186 177 211 228 234 238 226 204 217 241 239 237 258 248 258 275 274 269 263 257 252 251 236 243 245 250 251 251 248 246 246 239 224
168 152 147 162 241 267 240 224 232 195 165 187 226 231 228 259 269 236 210 217 235 237 240 235 244 263 270 268 268 263 256 252 252 258 263 261 254 247 247 254 250 232 223
156 146 157 173 211 262 272 249 201 153 160 200 229 238 236 242 259 255 241 233 234 226 221 229 225 232 255 255 244 236 241 235 240 251 269 281 288 276 270 262 253 244 233
142 129 145 165 219 249 275 295 261 175 172 191 239 250 251 256 251 250 286 285 263 264 248 241 236 240 245 255 254 252 251 248 232 195 232 246 248 246 246 246 252 247 240